Find Starlink 32764

NORAD ID: 62570 Int'l Des: 2025-006 Owner: SPXS Country: US Constellation: starlink operational
LEOCIRCULAR

Live-Position

3D-Globus wird geladen...

Über Starlink 32764

Beschreibung wird geladen...

Nächste Überflüge

Passes for default location (London). Set your location on the main map for personalized predictions.

Höhenverlauf

Loading altitude history...

Zweizeiliger Elementsatz

1 62570U 25006S 26123.64909987 .00024527 00000-0 89747-3 0 9997
2 62570 43.0058 342.5633 0000753 303.8861 56.1920 15.27594724 73269
Epoch: 3. Mai 2026 • Age: 12 hours

Aktueller Status

Höhe 489.7 km
Geschwindigkeit 7.62 km/s
Subsatellitenpunkt -26.88°S, 82.48°W
Startdatum 10. Jan. 2025
Alter 1.3 years
Typ internet

Technische Details

Klassifizierung Payload
Masse 730.00 kg
Trockenmasse 700.00 kg
Gesamtmasse 730.00 kg
Länge 0.30 m
Durchmesser 4.10 m
Spannweite 29.00 m
Form Box + pan
Hersteller SPXS
Bus-Typ Starlink V2M
Phasenstatus In Orbit
Besitzer/Staat SPXS/US

Most Searched